Zurück zum Katalog

COSMOS 1275 DEB

AktivPO
NORAD 12694·DEBRIS·🇷🇺 Russia

Gestartet Jun 4, 1981 von Plesetsk Cosmodrome

Loading…

Nächste Überflüge (nächste 24 Stunden)

TLE

AktuellSource: Space-Track

Epoche: Sep 14, 2026, 08:14 UTC

1 12694U 81053AN  26257.34347044  .00000274  00000-0  32033-3 0  9997
2 12694  83.0820  36.4233 0113624   0.6911  25.6550 13.62461647235115

Verfolge COSMOS 1275 DEB in Echtzeit mit AllMySat

Download on the App Store